星链-1618 (STARLINK-1618 )

导读 | 星芒AI

STARLINK-1618 是 SpaceX Starlink 项目中的一颗低轨通信卫星,旨在为全球用户提供高速互联网服务。该卫星于2023年发射,部署在约550公里高的近地轨道,采用先进的推进和通信技术,支持宽带数据传输。作为 Starlink 卫星群的一部分,它有助于扩大网络覆盖范围,特别是在偏远和网络基础设施薄弱的地区。该卫星具备自动避碰功能,以确保太空安全。

基本信息
目录编号:
46125
目录名称:
STARLINK-1618
国际标识:
2020-057J
轨道中心:
EARTH
卫星名称:
星链-1618
卫星全名:
星链-1618 (STARLINK-1618 )
卫星状态:
已陨落 最后检测时间 2025-09-17
发射日期:
2020-08-18 UTC
国别 :
美国 (US)
星等 :
--
轨道信息
数据来源 国际轨道数据
星历时间: 2025-09-17T09:11:04+0800
轨道信息已过期90天
半长轴: 6551.369km
偏心率: 0.0005174
轨道倾角: 53.024°
近地点辐角 335.253°
升交点赤经 319.437°
平近点角 24.826°
近地点: 169.844km
远地点: 176.624km
周期: 87.954分钟
每日圈数: 16.372113
详细信息
固有亮度:
5
最大亮度:
2.5
卫星平台:
Starlink V1.0
覆盖范围:
全球
运营商:
太空探索技术公司
运营商所在国:
美国
制造商(研发单位):
太空探索技术公司
制造商所在国:
美国
使用方式:
暂无
卫星简介
星链(Starlink)计划是由太空探索技术公司(SpaceX)提出的一个巨型低轨卫星互联网星座项目,计划在2019年至2024年间在太空搭建由约1.2万颗卫星组成的“星链”网络,其中1584颗将部署在地球上空550千米处的近地轨道,并从2020年开始工作。该卫星仍在工作。